Location: *
(45.5667°S, 177.5167°W)
Time: 17:06:20
(UTC+00:00)

Meteor 1-27 Rocket - Pass Details

Date: 29 May 2022
Orbit: 830 x 909 km, 81.3° (Epoch: 28 June)

Event Time Altitude Azimuth Distance (km) Brightness Sun altitude
Rises 06:56:55 0° 192° (SSW) 3,417 7.0 -27.2°
Reaches altitude 10° 06:59:20 10° 192° (SSW) 2,478 6.2 -27.6°
Enters shadow 07:04:55 85° 263° (W) 859 3.6 -28.6°
